ITAMSAT 1 - Orbit

View from above orbital plane
View from above orbital plane
View from above satellite
View from above satellite

Ground track
Ground track

The orbit data is extracted from the following two-line orbital elements,

1 22826U 93061D   13138.88663884  .00000120  00000-0  63724-4 0  1436
2 22826 098.6106 083.5167 0008967 015.6154 058.6893 14.29845139 24577
Epoch (UTC): 18 May 2013 21:16:45
Eccentricity: 0.0008967
inclination: 98.6106°
perigee height: 786 km
apogee height: 798 km
right ascension of ascending node: 83.5167°
argument of perigee: 15.6154°
revolutions per day: 14.29845139
mean anomaly at epoch: 58.6893°
orbit number at epoch: 2457

The dashed part of the orbit path shows where the satellite is in the earth's shadow,  

Developed and maintained by Chris Peat, Heavens-Above GmbH. Please read the updated FAQ before sending e-mail. Imprint. DLR